This is the latest recevied weather packets stored in our database for station/object HB9FHL-13. If no packets are shown the sender has not sent any weather packets the latest 10 day(s).
| Time | Temp. | Humidity | Pressure | Rain* | Wind** | Luminosity | Snow |
|---|---|---|---|---|---|---|---|
| 1788368986 | 21.67° C | - | 1023.1 hPa | 0 mm | - | - | - |
| 1788368686 | 22.22° C | - | 1024.2 hPa | 0 mm | - | - | - |
| 1788368387 | 22.22° C | - | 1024.1 hPa | 0 mm | - | - | - |
| 1788368082 | 21.67° C | - | 1024.7 hPa | 0 mm | - | - | - |
| 1788367780 | 22.78° C | - | 1023.6 hPa | 0 mm | - | - | - |
| 1788367480 | 22.22° C | - | 1021.2 hPa | 0 mm | - | - | - |
| 1788367179 | 22.78° C | - | 1021.2 hPa | 0 mm | - | - | - |
| 1788366879 | 22.22° C | - | 1025.5 hPa | 0 mm | - | - | - |
| 1788366580 | 23.33° C | - | 1025.4 hPa | 0 mm | - | - | - |
| 1788366278 | 23.33° C | - | 1018.2 hPa | 0 mm | - | - | - |
| 1788365977 | 23.33° C | - | 1021.4 hPa | 0 mm | - | - | - |
| 1788365376 | 23.33° C | - | 1024.4 hPa | 0 mm | - | - | - |
| 1788365075 | 22.78° C | - | 1023.1 hPa | 0 mm | - | - | - |
| 1788364775 | 22.78° C | - | 1021.6 hPa | 0 mm | - | - | - |
| 1788364474 | 21.11° C | - | 1023.5 hPa | 0 mm | - | - | - |
| 1788364174 | 22.78° C | - | 1025.1 hPa | 0 mm | - | - | - |
| 1788363873 | 22.22° C | - | 1023.6 hPa | 0 mm | - | - | - |
| 1788363573 | 22.22° C | - | 1020.2 hPa | 0 mm | - | - | - |
| 1788363272 | 22.78° C | - | 1022.6 hPa | 0 mm | - | - | - |
| 1788362972 | 22.78° C | - | 1019.3 hPa | 0 mm | - | - | - |
| 1788362671 | 22.22° C | - | 1024.4 hPa | 0 mm | - | - | - |
| 1788362370 | 23.33° C | - | 1021.3 hPa | 0 mm | - | - | - |
| 1788362070 | 22.78° C | - | 1022.7 hPa | 0 mm | - | - | - |
| 1788361769 | 23.33° C | - | 1021.2 hPa | 0 mm | - | - | - |
| 1788361469 | 23.33° C | - | 1024.3 hPa | 0 mm | - | - | - |
* Rain since midnight (hover to see other rain measurements)
** Current wind speed in m/s (hover to see current wind gust speed)